QTR4E OTHH-KJFK

Flight info

Callsign QTR4E
Flight time N/A
Altitude 29000
Route DATRI L564 MIGMA/N0520F280 M628 AMBAG/N0505F340 M321 KSA T503 TAMRO/N0497F360 T503 OVANO L768 FIRAS R655 KTN R785 NIKAS L619 VESAR UN135 IMR UN127 RIKSO DCT DISOR DCT LONTA/N0482F380 UL608 DOLEV DCT GORPA DCT MODSA DCT BABEG DCT LIRSU DCT DENUT L610 KOPUL Q60 OKSAW DCT TEWXI DCT VATRY DCT DOGAL/M085F400 DCT 55N020W 56N030W 56N040W 55N050W DCT LOMSI/N0488F400 N666A MIILS DCT ENE PARCH4
Aircraft A359/H-SDE2E3GHIJ1J3J4J5LM1ORWXY/LB1D1

Departure

Time 2026-05-05 09:49
Airport Hamad International Airport (OTHH)

Arrival

Time N/A
Airport John F. Kennedy International Airport (KJFK)
Time Latitude Longitude Altitude Speed Heading
2026-05-05 09:18 25.26683 51.60907 36 ft 0 kts 23°
2026-05-05 09:39 25.26662 51.60897 35 ft 4 kts 23°
2026-05-05 09:39 25.26637 51.60885 34 ft 3 kts 23°
2026-05-05 09:39 25.26617 51.60877 34 ft 4 kts
2026-05-05 09:39 25.26595 51.60884 33 ft 4 kts 308°
2026-05-05 09:40 25.26583 51.60909 33 ft 4 kts 293°
2026-05-05 09:40 25.26573 51.60934 35 ft 2 kts 293°
2026-05-05 09:40 25.26572 51.60936 35 ft 0 kts 293°
2026-05-05 09:42 25.26573 51.60934 35 ft 2 kts 293°
2026-05-05 09:42 25.26591 51.60887 34 ft 11 kts 293°
2026-05-05 09:42 25.26623 51.60806 36 ft 12 kts 293°
2026-05-05 09:43 25.26655 51.60723 36 ft 12 kts 293°
2026-05-05 09:43 25.26678 51.60665 36 ft 12 kts 293°
2026-05-05 09:43 25.26680 51.60585 36 ft 12 kts 253°
2026-05-05 09:43 25.26650 51.60501 36 ft 12 kts 248°
2026-05-05 09:44 25.26616 51.60418 36 ft 12 kts 231°
2026-05-05 09:44 25.26543 51.60409 35 ft 11 kts 163°
2026-05-05 09:44 25.26473 51.60440 36 ft 11 kts 158°
2026-05-05 09:44 25.26402 51.60471 36 ft 11 kts 158°
2026-05-05 09:45 25.26326 51.60505 36 ft 14 kts 158°
2026-05-05 09:45 25.26236 51.60545 36 ft 14 kts 158°
2026-05-05 09:45 25.26147 51.60584 36 ft 14 kts 158°
2026-05-05 09:45 25.26052 51.60626 36 ft 14 kts 158°
2026-05-05 09:46 25.25958 51.60667 36 ft 15 kts 158°
2026-05-05 09:46 25.25858 51.60711 36 ft 15 kts 158°
2026-05-05 09:46 25.25760 51.60755 36 ft 15 kts 158°
2026-05-05 09:46 25.25672 51.60791 36 ft 8 kts 169°
2026-05-05 09:47 25.25634 51.60762 36 ft 7 kts 233°
2026-05-05 09:47 25.25611 51.60708 35 ft 8 kts 248°
2026-05-05 09:47 25.25584 51.60635 33 ft 12 kts 248°
2026-05-05 09:47 25.25574 51.60545 31 ft 12 kts 301°
2026-05-05 09:48 25.25643 51.60497 31 ft 13 kts 338°
2026-05-05 09:48 25.25822 51.60417 34 ft 55 kts 338°
2026-05-05 09:48 25.26364 51.60179 33 ft 111 kts 338°
2026-05-05 09:48 25.27246 51.59791 32 ft 160 kts 338°
2026-05-05 09:49 25.28388 51.59279 178 ft 189 kts 336°
2026-05-05 09:49 25.29547 51.58725 877 ft 177 kts 338°
2026-05-05 09:49 25.30673 51.58186 1302 ft 174 kts 337°
2026-05-05 09:49 25.31786 51.57664 1568 ft 177 kts 339°
2026-05-05 09:50 25.32983 51.57166 1699 ft 190 kts 339°
2026-05-05 09:50 25.34259 51.56638 1848 ft 202 kts 339°
2026-05-05 09:50 25.35608 51.56065 1998 ft 214 kts 339°
2026-05-05 09:50 25.37044 51.55444 2116 ft 229 kts 339°
2026-05-05 09:51 25.38566 51.54774 2291 ft 242 kts 339°
2026-05-05 09:51 25.40168 51.54065 2545 ft 253 kts 339°
2026-05-05 09:51 25.41831 51.53333 2856 ft 261 kts 339°
2026-05-05 09:51 25.43539 51.52584 3267 ft 266 kts 339°
2026-05-05 09:52 25.45257 51.51822 3772 ft 266 kts 339°
2026-05-05 09:52 25.46893 51.50844 4212 ft 272 kts 322°
2026-05-05 09:52 25.48065 51.49199 4651 ft 277 kts 294°
2026-05-05 09:52 25.48396 51.47828 4926 ft 281 kts 276°
2026-05-05 09:53 25.48399 51.45655 5388 ft 284 kts 268°
2026-05-05 09:53 25.48278 51.43469 5834 ft 286 kts 268°
2026-05-05 09:53 25.48158 51.41271 6293 ft 287 kts 268°
2026-05-05 09:53 25.48046 51.39063 6725 ft 288 kts 268°
2026-05-05 09:54 25.47940 51.36843 7188 ft 289 kts 268°
2026-05-05 09:54 25.47838 51.34626 7690 ft 288 kts 269°
2026-05-05 09:54 25.47738 51.32411 8208 ft 288 kts 268°
2026-05-05 09:54 25.47628 51.30200 8771 ft 287 kts 266°
2026-05-05 09:55 25.47171 51.28048 9245 ft 290 kts 246°
2026-05-05 09:55 25.45961 51.26269 9704 ft 294 kts 220°
2026-05-05 09:55 25.44127 51.25215 10011 ft 306 kts 195°
2026-05-05 09:55 25.41959 51.25112 10209 ft 320 kts 177°
2026-05-05 09:56 25.39694 51.25244 10409 ft 332 kts 179°
2026-05-05 09:56 25.37352 51.25320 10606 ft 343 kts 180°
2026-05-05 09:56 25.34918 51.25373 10816 ft 354 kts 181°
2026-05-05 09:56 25.32415 51.25416 10995 ft 365 kts 181°
2026-05-05 09:57 25.29841 51.25454 11201 ft 375 kts 181°
2026-05-05 09:57 25.27234 51.25639 11357 ft 386 kts 172°
2026-05-05 09:57 25.24615 51.26464 11532 ft 397 kts 161°
2026-05-05 09:57 25.22007 51.27557 11694 ft 405 kts 160°
2026-05-05 09:58 25.19367 51.28692 12007 ft 409 kts 160°
2026-05-05 09:58 25.16709 51.29829 12348 ft 412 kts 160°
2026-05-05 09:58 25.14025 51.30968 12700 ft 414 kts 160°
2026-05-05 09:58 25.11318 51.32114 13053 ft 417 kts 160°
2026-05-05 09:59 25.08605 51.33259 13406 ft 420 kts 160°
2026-05-05 09:59 25.05864 51.34417 13699 ft 424 kts 160°
2026-05-05 09:59 25.03097 51.35584 13988 ft 427 kts 160°
2026-05-05 09:59 25.00316 51.36753 14368 ft 427 kts 160°
2026-05-05 10:00 24.97575 51.37904 14725 ft 427 kts 161°
2026-05-05 10:00 24.94795 51.39074 15090 ft 428 kts 160°
2026-05-05 10:00 24.92110 51.40503 15434 ft 431 kts 149°
2026-05-05 10:00 24.89618 51.42357 15803 ft 433 kts 146°
2026-05-05 10:01 24.87166 51.44285 16134 ft 434 kts 146°
2026-05-05 10:01 24.84708 51.46220 16458 ft 436 kts 146°
2026-05-05 10:01 24.82237 51.48160 16802 ft 437 kts 146°
2026-05-05 10:01 24.79756 51.50101 17135 ft 438 kts 146°
2026-05-05 10:02 24.77267 51.52046 17466 ft 439 kts 146°
2026-05-05 10:02 24.74736 51.53948 17779 ft 440 kts 150°
2026-05-05 10:02 24.71967 51.55358 18073 ft 438 kts 165°
2026-05-05 10:02 24.68988 51.55946 18337 ft 435 kts 180°
2026-05-05 10:03 24.65973 51.55796 18590 ft 435 kts 188°
2026-05-05 10:03 24.62974 51.55266 18812 ft 436 kts 193°
2026-05-05 10:03 24.60045 51.54559 19056 ft 437 kts 195°
2026-05-05 10:03 24.57081 51.53772 19314 ft 439 kts 195°
2026-05-05 10:04 24.54111 51.52979 19562 ft 441 kts 195°
2026-05-05 10:04 24.51123 51.52204 19808 ft 442 kts 195°
2026-05-05 10:04 24.48117 51.51453 20058 ft 444 kts 194°
2026-05-05 10:04 24.45092 51.50720 20316 ft 446 kts 194°
2026-05-05 10:05 24.42052 51.49998 20577 ft 448 kts 194°
2026-05-05 10:05 24.39000 51.49281 20826 ft 450 kts 194°
2026-05-05 10:05 24.35926 51.48561 21075 ft 452 kts 194°
2026-05-05 10:05 24.32846 51.47840 21334 ft 454 kts 194°
2026-05-05 10:06 24.29750 51.47114 21598 ft 455 kts 194°
2026-05-05 10:06 24.26651 51.46388 21866 ft 457 kts 194°
2026-05-05 10:06 24.23527 51.45688 22122 ft 460 kts 191°
2026-05-05 10:06 24.20332 51.45322 22387 ft 463 kts 185°
2026-05-05 10:07 24.17098 51.45193 22654 ft 466 kts 183°
2026-05-05 10:07 24.13855 51.45154 22907 ft 468 kts 182°
2026-05-05 10:07 24.10590 51.45163 23155 ft 470 kts 181°
2026-05-05 10:07 24.07309 51.45192 23386 ft 472 kts 181°
2026-05-05 10:08 24.04023 51.45224 23594 ft 473 kts 181°
2026-05-05 10:08 24.00722 51.45251 23815 ft 475 kts 182°
2026-05-05 10:08 23.97413 51.45272 24041 ft 476 kts 182°
2026-05-05 10:08 23.94112 51.45288 24255 ft 477 kts 182°
2026-05-05 10:09 23.90775 51.45301 24481 ft 478 kts 182°
2026-05-05 10:09 23.87443 51.45234 24689 ft 478 kts 186°
2026-05-05 10:09 23.84164 51.44689 24901 ft 477 kts 196°
2026-05-05 10:09 23.81041 51.43501 25127 ft 474 kts 207°
2026-05-05 10:10 23.78228 51.41651 25365 ft 472 kts 219°
2026-05-05 10:10 23.75857 51.39193 25616 ft 470 kts 232°
2026-05-05 10:10 23.74038 51.36244 25877 ft 469 kts 244°
2026-05-05 10:10 23.72857 51.32993 26138 ft 469 kts 255°
2026-05-05 10:11 23.72324 51.29475 26419 ft 470 kts 267°
2026-05-05 10:11 23.72345 51.25908 26704 ft 471 kts 272°
2026-05-05 10:11 23.72633 51.22343 26975 ft 473 kts 276°
2026-05-05 10:11 23.73049 51.18777 27245 ft 474 kts 277°
2026-05-05 10:12 23.73506 51.15204 27524 ft 476 kts 277°
2026-05-05 10:12 23.73958 51.11621 27777 ft 477 kts 276°
2026-05-05 10:12 23.74389 51.08019 28029 ft 478 kts 276°
2026-05-05 10:12 23.74798 51.04413 28285 ft 480 kts 276°
2026-05-05 10:13 23.75192 51.00787 28527 ft 481 kts 275°
2026-05-05 10:13 23.75575 50.97157 28760 ft 482 kts 275°
2026-05-05 10:13 23.75949 50.93565 29142 ft 480 kts 275°
2026-05-05 10:13 23.76322 50.89965 29633 ft 475 kts 275°
2026-05-05 10:14 23.76693 50.86378 29985 ft 473 kts 275°
2026-05-05 10:14 23.77062 50.82807 30225 ft 473 kts 275°
2026-05-05 10:14 23.77432 50.79233 30467 ft 473 kts 275°
2026-05-05 10:14 23.77800 50.75668 30713 ft 472 kts 275°
2026-05-05 10:15 23.78167 50.72106 30961 ft 471 kts 275°
2026-05-05 10:15 23.78534 50.68549 31207 ft 471 kts 275°
2026-05-05 10:15 23.78899 50.64997 31454 ft 470 kts 275°
2026-05-05 10:15 23.79262 50.61456 31711 ft 469 kts 275°
2026-05-05 10:16 23.79623 50.57923 31953 ft 468 kts 274°
2026-05-05 10:16 23.79978 50.54440 32172 ft 467 kts 274°
2026-05-05 10:16 23.80337 50.50913 32393 ft 467 kts 274°
2026-05-05 10:16 23.80695 50.47391 32618 ft 466 kts 274°
2026-05-05 10:17 23.81050 50.43881 32835 ft 465 kts 274°
2026-05-05 10:17 23.81405 50.40373 33050 ft 464 kts 274°
2026-05-05 10:17 23.81758 50.36868 33240 ft 464 kts 274°
2026-05-05 10:17 23.82111 50.33358 33467 ft 463 kts 274°
2026-05-05 10:18 23.82461 50.29876 33740 ft 461 kts 274°
2026-05-05 10:18 23.82810 50.26397 33931 ft 460 kts 274°
2026-05-05 10:18 23.83156 50.22931 34078 ft 459 kts 274°
2026-05-05 10:18 23.83502 50.19468 34225 ft 459 kts 274°
2026-05-05 10:19 23.83846 50.16002 34357 ft 459 kts 274°
2026-05-05 10:19 23.84190 50.12533 34485 ft 459 kts 274°
2026-05-05 10:19 23.84533 50.09070 34631 ft 458 kts 274°
2026-05-05 10:19 23.84875 50.05613 34778 ft 458 kts 274°
2026-05-05 10:20 23.85216 50.02153 34917 ft 457 kts 274°
2026-05-05 10:20 23.85555 49.98705 35049 ft 457 kts 273°
2026-05-05 10:20 23.85893 49.95256 35176 ft 456 kts 273°
2026-05-05 10:20 23.86226 49.91859 35271 ft 456 kts 273°
2026-05-05 10:21 23.86566 49.88369 35388 ft 456 kts 273°
2026-05-05 10:21 23.86902 49.84924 35515 ft 456 kts 273°
2026-05-05 10:21 23.87232 49.81532 35631 ft 455 kts 273°
2026-05-05 10:21 23.87565 49.78094 35734 ft 455 kts 273°
2026-05-05 10:22 23.88231 49.71191 35767 ft 459 kts 273°
2026-05-05 10:22 23.88903 49.64198 35760 ft 460 kts 273°
2026-05-05 10:23 23.89569 49.57251 35766 ft 460 kts 273°
2026-05-05 10:23 23.90231 49.50308 35762 ft 460 kts 273°
2026-05-05 10:24 23.90886 49.43398 35762 ft 460 kts 273°
2026-05-05 10:24 23.91542 49.36445 35766 ft 460 kts 273°
2026-05-05 10:25 23.92195 49.29489 35767 ft 460 kts 272°
2026-05-05 10:25 23.92845 49.22533 35766 ft 460 kts 272°
2026-05-05 10:26 23.93492 49.15569 35782 ft 461 kts 272°
2026-05-05 10:26 23.94135 49.08628 35771 ft 458 kts 272°
2026-05-05 10:27 23.94774 49.01691 35765 ft 457 kts 272°
2026-05-05 10:27 23.95407 48.94770 35767 ft 457 kts 272°
2026-05-05 10:28 23.96037 48.87856 35776 ft 457 kts 272°
2026-05-05 10:28 23.96665 48.80935 35773 ft 457 kts 272°
2026-05-05 10:29 23.97285 48.74058 35773 ft 457 kts 272°
2026-05-05 10:29 23.97907 48.67135 35773 ft 457 kts 272°
2026-05-05 10:30 23.98525 48.60205 35776 ft 457 kts 272°
2026-05-05 10:30 23.99140 48.53297 35778 ft 455 kts 272°
2026-05-05 10:31 23.99748 48.46421 35791 ft 454 kts 272°
2026-05-05 10:31 24.00351 48.39553 35785 ft 453 kts 272°
2026-05-05 10:32 24.00951 48.32696 35791 ft 453 kts 272°
2026-05-05 10:32 24.01548 48.25836 35796 ft 453 kts 272°
2026-05-05 10:33 24.02142 48.18977 35807 ft 453 kts 272°
2026-05-05 10:33 24.02728 48.12169 35801 ft 452 kts 272°
2026-05-05 10:34 24.03315 48.05314 35806 ft 452 kts 272°
2026-05-05 10:34 24.03899 47.98457 35822 ft 452 kts 272°
2026-05-05 10:35 24.04479 47.91633 35809 ft 449 kts 271°
2026-05-05 10:35 24.05051 47.84841 35816 ft 448 kts 271°
2026-05-05 10:36 24.05621 47.78041 35879 ft 448 kts 271°
2026-05-05 10:36 24.06188 47.71244 35906 ft 448 kts 271°
2026-05-05 10:37 24.06751 47.64453 35923 ft 448 kts 271°
2026-05-05 10:37 24.07309 47.57694 35925 ft 448 kts 271°
2026-05-05 10:38 24.07867 47.50897 35924 ft 449 kts 271°
2026-05-05 10:38 24.08422 47.44096 35915 ft 449 kts 271°
2026-05-05 10:39 24.08974 47.37300 35891 ft 449 kts 271°
2026-05-05 10:39 24.09524 47.30484 35878 ft 449 kts 271°
2026-05-05 10:40 24.09980 47.24815 35863 ft 449 kts 271°
2026-05-05 10:40 24.10737 47.18019 35836 ft 453 kts 278°
2026-05-05 10:41 24.12967 47.11518 35838 ft 464 kts 294°
2026-05-05 10:41 24.17071 47.05926 35855 ft 481 kts 313°
2026-05-05 10:42 24.22793 47.01905 35845 ft 495 kts 327°
2026-05-05 10:42 24.25935 47.00333 35845 ft 499 kts 329°
2026-05-05 10:43 24.32339 46.97484 35852 ft 500 kts 331°
2026-05-05 10:43 24.38783 46.94629 35871 ft 499 kts 330°
2026-05-05 10:44 24.45171 46.91700 35855 ft 497 kts 329°
2026-05-05 10:44 24.51530 46.88731 35859 ft 496 kts 329°
2026-05-05 10:45 24.57882 46.85753 35876 ft 496 kts 329°
2026-05-05 10:45 24.64245 46.82771 35863 ft 496 kts 329°
2026-05-05 10:46 24.70586 46.79799 35871 ft 496 kts 329°
2026-05-05 10:46 24.76946 46.76816 35879 ft 496 kts 329°
2026-05-05 10:47 24.83254 46.73854 35881 ft 496 kts 329°
2026-05-05 10:47 24.89595 46.70872 35883 ft 495 kts 329°
2026-05-05 10:48 24.95917 46.67777 35883 ft 489 kts 323°
2026-05-05 10:48 25.01306 46.63535 35884 ft 473 kts 311°
2026-05-05 10:49 25.06186 46.58689 35881 ft 471 kts 309°
2026-05-05 10:49 25.10974 46.53752 35885 ft 471 kts 309°
2026-05-05 10:50 25.15764 46.48811 35888 ft 471 kts 309°
2026-05-05 10:50 25.20558 46.43892 35888 ft 470 kts 309°
2026-05-05 10:51 25.25351 46.38981 35890 ft 470 kts 309°
2026-05-05 10:51 25.30148 46.34061 35905 ft 470 kts 309°
2026-05-05 10:52 25.34935 46.29146 35892 ft 469 kts 308°
2026-05-05 10:52 25.39719 46.24227 35892 ft 469 kts 308°
2026-05-05 10:53 25.44496 46.19309 35883 ft 469 kts 308°
2026-05-05 10:53 25.49274 46.14386 35895 ft 469 kts 308°
2026-05-05 10:54 25.54020 46.09487 35882 ft 469 kts 308°
2026-05-05 10:54 25.58797 46.04554 35881 ft 469 kts 308°
2026-05-05 10:55 25.63576 45.99616 35881 ft 469 kts 308°
2026-05-05 10:55 25.68345 45.94682 35890 ft 469 kts 308°
2026-05-05 10:56 25.73115 45.89732 35879 ft 469 kts 308°
2026-05-05 10:56 25.77885 45.84779 35896 ft 469 kts 308°
2026-05-05 10:57 25.82652 45.79827 35893 ft 469 kts 308°
2026-05-05 10:57 25.87385 45.74905 35880 ft 470 kts 308°
2026-05-05 10:58 25.92156 45.69942 35896 ft 470 kts 308°
2026-05-05 10:58 25.96919 45.64971 35890 ft 469 kts 308°
2026-05-05 10:59 26.01671 45.60006 35888 ft 469 kts 308°
2026-05-05 10:59 26.06422 45.55039 35893 ft 468 kts 308°
2026-05-05 11:00 26.11169 45.50071 35903 ft 468 kts 307°
2026-05-05 11:00 26.15905 45.45109 35889 ft 467 kts 307°
2026-05-05 11:01 26.20637 45.40146 35885 ft 467 kts 307°
2026-05-05 11:01 26.25371 45.35177 35889 ft 467 kts 307°
2026-05-05 11:02 26.30096 45.30213 35885 ft 467 kts 307°
2026-05-05 11:02 26.34789 45.25285 35885 ft 467 kts 307°
2026-05-05 11:03 26.39519 45.20326 35887 ft 467 kts 307°
2026-05-05 11:03 26.44246 45.15364 35872 ft 467 kts 307°
2026-05-05 11:04 26.48974 45.10393 35892 ft 467 kts 307°
2026-05-05 11:04 26.53700 45.05417 35889 ft 467 kts 307°
2026-05-05 11:05 26.58427 45.00435 35885 ft 466 kts 307°
2026-05-05 11:05 26.63149 44.95461 35884 ft 467 kts 307°
2026-05-05 11:06 26.67865 44.90478 35881 ft 467 kts 307°
2026-05-05 11:06 26.72584 44.85486 35879 ft 467 kts 307°
2026-05-05 11:07 26.77270 44.80526 35875 ft 466 kts 307°
2026-05-05 11:07 26.81981 44.75536 35876 ft 466 kts 307°
2026-05-05 11:08 26.86679 44.70535 35873 ft 466 kts 307°
2026-05-05 11:08 26.91382 44.65523 35877 ft 466 kts 307°
2026-05-05 11:09 26.96080 44.60516 35881 ft 466 kts 307°
2026-05-05 11:09 27.00783 44.55503 35870 ft 466 kts 307°
2026-05-05 11:10 27.05475 44.50489 35869 ft 466 kts 306°
2026-05-05 11:10 27.10159 44.45462 35870 ft 466 kts 306°
2026-05-05 11:11 27.14840 44.40438 35879 ft 465 kts 306°
2026-05-05 11:11 27.19524 44.35419 35873 ft 465 kts 307°
2026-05-05 11:12 27.24209 44.30395 35877 ft 465 kts 306°
2026-05-05 11:12 27.28886 44.25369 35886 ft 465 kts 306°
2026-05-05 11:13 27.33531 44.20372 35884 ft 465 kts 306°
2026-05-05 11:13 27.38203 44.15343 35881 ft 465 kts 306°
2026-05-05 11:14 27.42872 44.10309 35886 ft 465 kts 306°
2026-05-05 11:14 27.47540 44.05271 35889 ft 464 kts 306°
2026-05-05 11:15 27.52202 44.00232 35894 ft 464 kts 306°
2026-05-05 11:15 27.56853 43.95200 35894 ft 463 kts 306°
2026-05-05 11:16 27.61474 43.90193 35903 ft 463 kts 306°
2026-05-05 11:16 27.66148 43.85124 35903 ft 463 kts 306°
2026-05-05 11:17 27.70757 43.80117 35905 ft 463 kts 306°
2026-05-05 11:17 27.75395 43.75075 35913 ft 462 kts 306°
2026-05-05 11:18 27.80031 43.70026 35914 ft 462 kts 306°
2026-05-05 11:18 27.84659 43.64981 35919 ft 462 kts 306°
2026-05-05 11:19 27.89129 43.59814 35918 ft 458 kts 303°
2026-05-05 11:19 27.93432 43.54516 35922 ft 457 kts 303°
2026-05-05 11:20 27.97737 43.49231 35929 ft 457 kts 303°
2026-05-05 11:20 28.02077 43.43965 35925 ft 457 kts 303°
2026-05-05 11:21 28.06396 43.38745 35923 ft 456 kts 303°
2026-05-05 11:21 28.10732 43.33504 35947 ft 456 kts 303°
2026-05-05 11:22 28.15065 43.28252 35930 ft 456 kts 303°
2026-05-05 11:22 28.19392 43.23000 35950 ft 455 kts 303°
2026-05-05 11:23 28.23713 43.17748 35953 ft 456 kts 303°
2026-05-05 11:23 28.28036 43.12487 35953 ft 456 kts 303°
2026-05-05 11:24 28.32353 43.07227 35954 ft 456 kts 303°
2026-05-05 11:24 28.36677 43.01953 35974 ft 456 kts 303°
2026-05-05 11:25 28.40966 42.96715 35960 ft 456 kts 303°
2026-05-05 11:25 28.45285 42.91432 35961 ft 456 kts 303°
2026-05-05 11:26 28.49604 42.86143 35960 ft 456 kts 303°
2026-05-05 11:26 28.53929 42.80841 35963 ft 456 kts 303°
2026-05-05 11:27 28.57517 42.76436 35965 ft 456 kts 303°
2026-05-05 11:27 28.61826 42.71138 35964 ft 456 kts 303°
2026-05-05 11:28 28.66139 42.65837 35965 ft 456 kts 303°
2026-05-05 11:28 28.70445 42.60531 35990 ft 456 kts 303°
2026-05-05 11:29 28.74750 42.55212 35976 ft 456 kts 303°
2026-05-05 11:29 28.79054 42.49890 35977 ft 456 kts 303°
2026-05-05 11:30 28.83351 42.44572 35979 ft 456 kts 303°
2026-05-05 11:30 28.87649 42.39248 36009 ft 456 kts 303°
2026-05-05 11:31 28.91947 42.33913 35982 ft 457 kts 303°
2026-05-05 11:31 28.96222 42.28602 35981 ft 458 kts 303°
2026-05-05 11:32 29.00527 42.23248 35989 ft 457 kts 303°
2026-05-05 11:32 29.04828 42.17892 35996 ft 458 kts 303°
2026-05-05 11:33 29.09147 42.12512 35993 ft 458 kts 303°
2026-05-05 11:33 29.13449 42.07133 35999 ft 458 kts 303°
2026-05-05 11:34 29.17756 42.01743 36004 ft 458 kts 303°
2026-05-05 11:34 29.22058 41.96354 35999 ft 458 kts 302°
2026-05-05 11:35 29.26357 41.90962 35999 ft 458 kts 302°
2026-05-05 11:35 29.30653 41.85568 36011 ft 458 kts 302°
2026-05-05 11:36 29.34942 41.80175 36008 ft 458 kts 302°
2026-05-05 11:36 29.39229 41.74776 36010 ft 457 kts 302°
2026-05-05 11:37 29.43475 41.69424 36004 ft 456 kts 302°
2026-05-05 11:37 29.47736 41.64045 36009 ft 455 kts 302°
2026-05-05 11:38 29.52000 41.58651 36012 ft 455 kts 302°
2026-05-05 11:38 29.56257 41.53262 36017 ft 455 kts 302°
2026-05-05 11:39 29.60501 41.47883 36003 ft 454 kts 302°
2026-05-05 11:39 29.64736 41.42507 36020 ft 454 kts 302°
2026-05-05 11:40 29.68971 41.37121 36021 ft 454 kts 302°
2026-05-05 11:40 29.73222 41.31757 36021 ft 456 kts 304°
2026-05-05 11:41 29.77873 41.26770 36013 ft 461 kts 307°
2026-05-05 11:41 29.82659 41.21843 36018 ft 461 kts 307°
2026-05-05 11:42 29.87466 41.16928 36015 ft 462 kts 307°
2026-05-05 11:42 29.92260 41.12011 36034 ft 461 kts 307°
2026-05-05 11:43 29.97047 41.07084 36010 ft 461 kts 307°
2026-05-05 11:43 30.01824 41.02157 36013 ft 460 kts 307°
2026-05-05 11:44 30.06596 40.97227 36041 ft 460 kts 307°
2026-05-05 11:44 30.11368 40.92291 36014 ft 460 kts 307°
2026-05-05 11:45 30.16138 40.87351 36008 ft 460 kts 307°
2026-05-05 11:45 30.20877 40.82438 36005 ft 460 kts 307°
2026-05-05 11:46 30.25638 40.77494 35998 ft 460 kts 307°
2026-05-05 11:46 30.30400 40.72542 35999 ft 460 kts 307°
2026-05-05 11:47 30.35157 40.67590 35999 ft 460 kts 307°
2026-05-05 11:47 30.39916 40.62631 36000 ft 460 kts 307°
2026-05-05 11:48 30.47127 40.55248 35996 ft 461 kts 308°
2026-05-05 11:48 30.51912 40.50361 35996 ft 460 kts 308°
2026-05-05 11:49 30.56716 40.45436 35997 ft 460 kts 308°
2026-05-05 11:49 30.61506 40.40513 35990 ft 460 kts 308°
2026-05-05 11:50 30.66293 40.35583 35990 ft 460 kts 308°
2026-05-05 11:50 30.71077 40.30651 35985 ft 460 kts 308°
2026-05-05 11:51 30.75858 40.25715 35980 ft 460 kts 308°
2026-05-05 11:51 30.80638 40.20775 35984 ft 459 kts 307°
2026-05-05 11:52 30.85376 40.15871 35980 ft 458 kts 307°
2026-05-05 11:52 30.90137 40.10934 35982 ft 458 kts 307°
2026-05-05 11:53 30.94900 40.05990 35982 ft 458 kts 307°
2026-05-05 11:53 30.99663 40.01039 35983 ft 458 kts 307°
2026-05-05 11:54 31.04413 39.96094 35979 ft 457 kts 307°
2026-05-05 11:54 31.09157 39.91149 35982 ft 457 kts 307°
2026-05-05 11:55 31.13870 39.86228 35987 ft 457 kts 307°
2026-05-05 11:55 31.18618 39.81263 35982 ft 459 kts 307°
2026-05-05 11:56 31.23378 39.76281 35985 ft 458 kts 307°
2026-05-05 11:56 31.28130 39.71302 35984 ft 458 kts 307°
2026-05-05 11:57 31.32874 39.66322 35984 ft 458 kts 307°
2026-05-05 11:57 31.37619 39.61333 35989 ft 458 kts 307°
2026-05-05 11:58 31.42327 39.56377 35993 ft 458 kts 307°
2026-05-05 11:58 31.47062 39.51389 35984 ft 457 kts 307°
2026-05-05 11:59 31.51790 39.46395 35989 ft 457 kts 307°
2026-05-05 11:59 31.56514 39.41399 35988 ft 457 kts 307°
2026-05-05 12:00 31.61237 39.36398 35991 ft 457 kts 307°
2026-05-05 12:00 31.65953 39.31398 35991 ft 457 kts 307°
2026-05-05 12:01 31.70667 39.26394 35987 ft 457 kts 307°
2026-05-05 12:01 31.75380 39.21382 35986 ft 457 kts 307°
2026-05-05 12:02 31.80304 39.16585 35995 ft 470 kts 315°
2026-05-05 12:02 31.86069 39.12791 35986 ft 481 kts 321°
2026-05-05 12:03 31.92026 39.09271 35983 ft 483 kts 322°
2026-05-05 12:03 31.98093 39.05741 35983 ft 483 kts 322°
2026-05-05 12:04 32.04067 39.02235 35973 ft 483 kts 322°
2026-05-05 12:04 32.10077 38.98699 35979 ft 483 kts 322°
2026-05-05 12:05 32.16089 38.95149 35974 ft 483 kts 322°
2026-05-05 12:05 32.22104 38.91592 35971 ft 483 kts 322°
2026-05-05 12:06 32.28112 38.88035 35982 ft 483 kts 322°
2026-05-05 12:06 32.34081 38.84498 35962 ft 482 kts 322°
2026-05-05 12:07 32.40078 38.80937 35956 ft 481 kts 323°
2026-05-05 12:07 32.46067 38.77376 35954 ft 481 kts 323°
2026-05-05 12:08 32.52048 38.73814 35947 ft 481 kts 323°
2026-05-05 12:08 32.58023 38.70250 35941 ft 481 kts 323°
2026-05-05 12:09 32.64003 38.66684 35974 ft 481 kts 323°
2026-05-05 12:09 32.69971 38.63117 35940 ft 479 kts 323°
2026-05-05 12:10 32.75866 38.59587 35927 ft 477 kts 323°
2026-05-05 12:10 32.81796 38.56029 35935 ft 477 kts 323°
2026-05-05 12:11 32.87725 38.52467 35923 ft 477 kts 323°
2026-05-05 12:11 32.93653 38.48901 35923 ft 478 kts 323°
2026-05-05 12:12 32.99599 38.45323 35917 ft 479 kts 323°
2026-05-05 12:12 33.05554 38.41731 35911 ft 479 kts 323°
2026-05-05 12:13 33.11503 38.38131 35905 ft 479 kts 323°
2026-05-05 12:13 33.17458 38.34532 35926 ft 480 kts 323°
2026-05-05 12:14 33.23418 38.30929 35902 ft 481 kts 323°
2026-05-05 12:14 33.28372 38.27913 35899 ft 481 kts 323°
2026-05-05 12:15 33.34332 38.24266 35898 ft 481 kts 323°
2026-05-05 12:15 33.41263 38.20022 35902 ft 481 kts 323°
2026-05-05 12:16 33.46259 38.16963 35911 ft 480 kts 324°
2026-05-05 12:16 33.52174 38.13370 35900 ft 479 kts 324°
2026-05-05 12:17 33.58131 38.09754 35895 ft 479 kts 324°
2026-05-05 12:17 33.64076 38.06138 35898 ft 479 kts 324°
2026-05-05 12:18 33.70020 38.02514 35891 ft 479 kts 324°
2026-05-05 12:18 33.75959 37.98888 35889 ft 478 kts 324°
2026-05-05 12:19 33.81887 37.95247 35921 ft 476 kts 323°
2026-05-05 12:19 33.87127 37.90702 35888 ft 454 kts 308°
2026-05-05 12:20 33.90979 37.84873 35889 ft 441 kts 297°
2026-05-05 12:20 33.94269 37.78700 35895 ft 440 kts 295°
2026-05-05 12:21 33.97492 37.72436 35898 ft 440 kts 295°
2026-05-05 12:21 34.00729 37.66167 35905 ft 441 kts 296°
2026-05-05 12:22 34.03991 37.59890 35905 ft 441 kts 296°
2026-05-05 12:22 34.07260 37.53606 35910 ft 441 kts 296°
2026-05-05 12:23 34.10520 37.47333 35917 ft 442 kts 296°
2026-05-05 12:23 34.13789 37.41026 35912 ft 445 kts 296°
2026-05-05 12:24 34.17051 37.34717 35911 ft 447 kts 296°
2026-05-05 12:24 34.20367 37.28368 35912 ft 449 kts 298°
2026-05-05 12:25 34.24414 37.22532 35927 ft 456 kts 306°
2026-05-05 12:25 34.28774 37.16944 35916 ft 457 kts 307°
2026-05-05 12:26 34.33181 37.11402 35925 ft 457 kts 307°
2026-05-05 12:26 34.37584 37.05844 35924 ft 457 kts 307°
2026-05-05 12:27 34.41982 37.00261 35933 ft 457 kts 307°
2026-05-05 12:27 34.46372 36.94670 35942 ft 459 kts 307°
2026-05-05 12:28 34.50767 36.89061 35943 ft 459 kts 307°
2026-05-05 12:28 34.55137 36.83479 35948 ft 459 kts 307°
2026-05-05 12:29 34.59530 36.77858 35947 ft 459 kts 307°
2026-05-05 12:29 34.63928 36.72220 35957 ft 460 kts 308°
2026-05-05 12:30 34.68333 36.66564 35960 ft 461 kts 308°
2026-05-05 12:30 34.72748 36.60896 35966 ft 461 kts 308°
2026-05-05 12:31 34.77161 36.55208 35963 ft 461 kts 308°
2026-05-05 12:31 34.81533 36.49563 35986 ft 461 kts 308°
2026-05-05 12:32 34.85934 36.43872 35969 ft 461 kts 308°
2026-05-05 12:32 34.90330 36.38182 35976 ft 461 kts 308°
2026-05-05 12:33 34.94720 36.32491 35975 ft 460 kts 308°
2026-05-05 12:33 34.99095 36.26808 35974 ft 459 kts 308°
2026-05-05 12:34 35.03463 36.21122 35982 ft 459 kts 309°
2026-05-05 12:34 35.07826 36.15437 35968 ft 459 kts 309°
2026-05-05 12:35 35.12193 36.09735 35969 ft 459 kts 308°
2026-05-05 12:35 35.16487 36.03981 35971 ft 456 kts 304°
2026-05-05 12:36 35.19712 35.97463 35973 ft 448 kts 290°
2026-05-05 12:36 35.21230 35.90149 35974 ft 444 kts 274°
2026-05-05 12:37 35.20915 35.82646 35970 ft 443 kts 262°
2026-05-05 12:37 35.20352 35.75139 35994 ft 444 kts 271°
2026-05-05 12:38 35.21393 35.67696 35971 ft 448 kts 287°
2026-05-05 12:38 35.23989 35.60741 35968 ft 452 kts 294°
2026-05-05 12:39 35.26951 35.53953 35968 ft 452 kts 295°
2026-05-05 12:39 35.29946 35.47176 35968 ft 452 kts 296°
2026-05-05 12:40 35.32908 35.40382 35966 ft 452 kts 295°
2026-05-05 12:40 35.35844 35.33579 35966 ft 452 kts 295°
2026-05-05 12:41 35.38774 35.26764 35966 ft 452 kts 295°
2026-05-05 12:41 35.41700 35.19944 35966 ft 451 kts 296°
2026-05-05 12:42 35.44618 35.13133 35966 ft 451 kts 296°
2026-05-05 12:42 35.47530 35.06324 35966 ft 451 kts 296°
2026-05-05 12:43 35.50437 34.99512 35968 ft 450 kts 296°
2026-05-05 12:43 35.53320 34.92743 35966 ft 450 kts 296°
2026-05-05 12:44 35.56208 34.85947 35968 ft 449 kts 296°
2026-05-05 12:44 35.59099 34.79132 35969 ft 449 kts 296°
2026-05-05 12:45 35.61985 34.72312 35965 ft 449 kts 297°
2026-05-05 12:45 35.64858 34.65512 35966 ft 447 kts 297°
2026-05-05 12:46 35.67719 34.58725 35966 ft 447 kts 297°
2026-05-05 12:46 35.70563 34.51965 35965 ft 447 kts 297°
2026-05-05 12:47 35.73415 34.45170 35965 ft 447 kts 297°
2026-05-05 12:47 35.76264 34.38370 35963 ft 447 kts 297°
2026-05-05 12:48 35.79112 34.31559 35966 ft 447 kts 297°
2026-05-05 12:48 35.81953 34.24751 35966 ft 447 kts 297°
2026-05-05 12:49 35.84791 34.17933 35980 ft 446 kts 297°
2026-05-05 12:49 35.87620 34.11125 35963 ft 446 kts 297°
2026-05-05 12:50 35.90450 34.04302 35964 ft 446 kts 297°
2026-05-05 12:50 35.93156 33.97477 35958 ft 446 kts 294°
2026-05-05 12:51 35.95440 33.90362 35957 ft 444 kts 292°
2026-05-05 12:51 35.97644 33.83249 35957 ft 443 kts 292°
2026-05-05 12:52 35.99903 33.76180 35957 ft 443 kts 293°
2026-05-05 12:52 36.02200 33.69123 35957 ft 442 kts 293°
2026-05-05 12:53 36.04501 33.62073 35955 ft 443 kts 294°
2026-05-05 12:53 36.06797 33.55016 35955 ft 443 kts 293°
2026-05-05 12:54 36.10236 33.44396 35955 ft 443 kts 293°
2026-05-05 12:55 36.12505 33.37368 35954 ft 443 kts 293°
2026-05-05 12:55 36.14784 33.30290 35955 ft 443 kts 293°
2026-05-05 12:56 36.17063 33.23206 35955 ft 443 kts 293°
2026-05-05 12:56 36.19334 33.16117 35946 ft 442 kts 293°
2026-05-05 12:57 36.21609 33.09006 35950 ft 444 kts 294°
2026-05-05 12:57 36.23868 33.01926 35958 ft 445 kts 294°
2026-05-05 12:58 36.26138 32.94798 35956 ft 445 kts 294°
2026-05-05 12:58 36.28405 32.87657 35954 ft 445 kts 294°
2026-05-05 12:59 36.30667 32.80514 35954 ft 445 kts 294°
2026-05-05 12:59 36.32924 32.73374 35960 ft 444 kts 294°
2026-05-05 13:00 36.36297 32.62719 35976 ft 444 kts 294°
2026-05-05 13:01 36.40801 32.48447 35983 ft 444 kts 294°
2026-05-05 13:01 36.43046 32.41305 35986 ft 444 kts 294°
2026-05-05 13:02 36.45290 32.34152 35973 ft 444 kts 294°
2026-05-05 13:02 36.47151 32.28200 35985 ft 444 kts 294°
2026-05-05 13:03 36.49388 32.21039 35979 ft 444 kts 294°
2026-05-05 13:03 36.51620 32.13872 35977 ft 444 kts 294°
2026-05-05 13:04 36.53829 32.06758 35961 ft 444 kts 294°
2026-05-05 13:04 36.56051 31.99577 35969 ft 446 kts 293°
2026-05-05 13:05 36.58258 31.92367 35971 ft 446 kts 293°
2026-05-05 13:05 36.60465 31.85138 35966 ft 446 kts 293°
2026-05-05 13:06 36.62671 31.77910 35972 ft 447 kts 293°
2026-05-05 13:06 36.64875 31.70674 35956 ft 447 kts 293°
2026-05-05 13:07 36.67075 31.63431 35969 ft 447 kts 293°
2026-05-05 13:07 36.69282 31.56230 35967 ft 447 kts 294°
2026-05-05 13:08 36.71682 31.49027 35956 ft 447 kts 295°
2026-05-05 13:08 36.74092 31.41920 35957 ft 448 kts 295°
2026-05-05 13:09 36.76448 31.34714 35956 ft 449 kts 292°
2026-05-05 13:09 36.78540 31.27364 35955 ft 450 kts 291°
2026-05-05 13:10 36.80584 31.19990 35951 ft 450 kts 291°
2026-05-05 13:10 36.82667 31.12605 35952 ft 451 kts 291°
2026-05-05 13:11 36.84770 31.05226 35952 ft 451 kts 291°
2026-05-05 13:11 36.86877 30.97835 35952 ft 451 kts 291°
2026-05-05 13:12 36.88962 30.90498 35965 ft 452 kts 291°
2026-05-05 13:12 36.91062 30.83082 35966 ft 453 kts 291°
2026-05-05 13:13 36.93516 30.75861 35965 ft 451 kts 297°
2026-05-05 13:13 36.96251 30.68794 35965 ft 451 kts 297°
2026-05-05 13:14 36.99027 30.61746 35963 ft 451 kts 297°
2026-05-05 13:14 37.01797 30.54696 35961 ft 451 kts 297°
2026-05-05 13:15 37.04541 30.47676 35962 ft 451 kts 297°
2026-05-05 13:15 37.07289 30.40623 35965 ft 451 kts 297°
2026-05-05 13:16 37.10036 30.33551 35965 ft 452 kts 297°
2026-05-05 13:16 37.12787 30.26456 35971 ft 453 kts 297°
2026-05-05 13:17 37.15536 30.19347 35971 ft 453 kts 297°
2026-05-05 13:17 37.18281 30.12236 35976 ft 453 kts 297°
2026-05-05 13:18 37.21020 30.05123 35987 ft 452 kts 297°
2026-05-05 13:18 37.23759 29.98003 35987 ft 452 kts 297°
2026-05-05 13:19 37.26613 29.90981 36001 ft 452 kts 298°
2026-05-05 13:19 37.29504 29.84030 36002 ft 452 kts 298°
2026-05-05 13:20 37.32392 29.77021 35995 ft 452 kts 298°
2026-05-05 13:20 37.35254 29.70001 35995 ft 452 kts 298°
2026-05-05 13:21 37.38010 29.62896 36000 ft 452 kts 297°
2026-05-05 13:21 37.40720 29.55760 35999 ft 452 kts 297°
2026-05-05 13:22 37.43439 29.48631 36000 ft 452 kts 297°
2026-05-05 13:22 37.46168 29.41508 36004 ft 451 kts 297°
2026-05-05 13:23 37.48845 29.34348 36006 ft 451 kts 296°
2026-05-05 13:23 37.51472 29.27159 36017 ft 452 kts 296°
2026-05-05 13:24 37.54106 29.19951 36019 ft 453 kts 296°
2026-05-05 13:24 37.56731 29.12783 36022 ft 453 kts 296°
2026-05-05 13:25 37.59374 29.05563 36020 ft 453 kts 296°
2026-05-05 13:25 37.62011 28.98341 36020 ft 453 kts 296°
2026-05-05 13:26 37.64642 28.91118 36020 ft 453 kts 296°
2026-05-05 13:26 37.67267 28.83891 36022 ft 453 kts 296°
2026-05-05 13:27 37.69890 28.76655 36020 ft 453 kts 296°
2026-05-05 13:27 37.72507 28.69420 36020 ft 453 kts 296°
2026-05-05 13:28 37.75086 28.62207 36017 ft 453 kts 296°
2026-05-05 13:28 37.77666 28.54897 36017 ft 452 kts 296°
2026-05-05 13:29 37.80213 28.47674 36018 ft 453 kts 296°
2026-05-05 13:29 37.82779 28.40398 36018 ft 453 kts 296°
2026-05-05 13:30 37.85342 28.33118 36015 ft 452 kts 296°
2026-05-05 13:30 37.87891 28.25859 36021 ft 451 kts 296°
2026-05-05 13:31 37.90434 28.18600 36017 ft 451 kts 296°
2026-05-05 13:31 37.92976 28.11325 36018 ft 451 kts 296°
2026-05-05 13:32 37.95512 28.04047 36015 ft 451 kts 296°
2026-05-05 13:32 37.98024 27.96824 36018 ft 450 kts 296°
2026-05-05 13:33 38.00547 27.89559 36020 ft 450 kts 296°
2026-05-05 13:33 38.03329 27.82464 36020 ft 449 kts 300°
2026-05-05 13:34 38.06059 27.75327 36033 ft 450 kts 296°
2026-05-05 13:34 38.08573 27.68045 36017 ft 450 kts 295°
2026-05-05 13:35 38.11065 27.60754 36016 ft 450 kts 295°
2026-05-05 13:35 38.13581 27.53463 36017 ft 450 kts 296°
2026-05-05 13:36 38.16108 27.46174 36026 ft 450 kts 296°
2026-05-05 13:36 38.18631 27.38899 36025 ft 450 kts 296°
2026-05-05 13:37 38.21151 27.31609 36032 ft 450 kts 296°
2026-05-05 13:37 38.23644 27.24374 36013 ft 450 kts 296°
2026-05-05 13:38 38.26151 27.17083 36004 ft 450 kts 295°
2026-05-05 13:38 38.28652 27.09791 36026 ft 449 kts 296°
2026-05-05 13:39 38.31433 27.02672 36020 ft 449 kts 304°
2026-05-05 13:39 38.35473 26.96663 36028 ft 447 kts 317°
2026-05-05 13:40 38.40124 26.91372 36034 ft 447 kts 319°
2026-05-05 13:40 38.44854 26.86198 36033 ft 447 kts 319°
2026-05-05 13:41 38.49572 26.81022 36039 ft 447 kts 319°
2026-05-05 13:41 38.54265 26.75828 36044 ft 447 kts 319°
2026-05-05 13:42 38.58923 26.70648 36046 ft 447 kts 319°
2026-05-05 13:42 38.63614 26.65419 36047 ft 448 kts 319°
2026-05-05 13:43 38.68317 26.60170 36049 ft 448 kts 319°
2026-05-05 13:43 38.73021 26.54912 36040 ft 448 kts 319°
2026-05-05 13:44 38.77706 26.49664 36049 ft 446 kts 319°
2026-05-05 13:44 38.82363 26.44408 36046 ft 446 kts 317°
2026-05-05 13:45 38.86632 26.38625 36045 ft 446 kts 313°
2026-05-05 13:45 38.90753 26.32725 36051 ft 447 kts 313°
2026-05-05 13:46 38.94885 26.26741 36044 ft 448 kts 313°
2026-05-05 13:46 38.99019 26.20750 36048 ft 447 kts 313°
2026-05-05 13:47 39.03136 26.14786 36048 ft 446 kts 313°
2026-05-05 13:47 39.07254 26.08814 36054 ft 446 kts 313°
2026-05-05 13:48 39.11368 26.02836 36051 ft 446 kts 313°
2026-05-05 13:48 39.15480 25.96850 36053 ft 445 kts 313°